When you browse on this site, cookies collect data to enhance your experience and personalize the content and advertising you see.
Visit our Privacy Policy to learn more. By continuing to use the site, you agree to this use of cookies and data.
  • In Österreich
  • Länderverzeichnis
  • Für 7 Tage
  • Wassertemperatur
  • Wetterkarte
  • News
  • Widgets
  • user-avatar
    Anmelden

    Stündliche Wetter Patía

    Heute, 12 Dezember, Donnerstag

    Zeit Temperatur Niederschläge Wind Luftdruck Luftfeuchtigkeit
    00:00 +22°C° 4.7 mm 0 m/S 707 mmHg 98%
    01:00 +22°C° 4.7 mm 0 m/S 707 mmHg 98%
    02:00 +22°C° 0.5 mm 0 m/S 707 mmHg 98%
    03:00 +22°C° 0.5 mm 0 m/S 707 mmHg 98%
    04:00 +22°C° 0.5 mm 0 m/S 707 mmHg 97%
    05:00 +22°C° 0.1 mm 0 m/S 707 mmHg 97%
    06:00 +22°C° 0.1 mm 0 m/S 707 mmHg 96%
    07:00 +22°C° 0.1 mm 0 m/S 707 mmHg 95%
    08:00 +23°C° 0.1 mm 0 m/S 708 mmHg 91%
    09:00 +25°C° 0.1 mm 0 m/S 708 mmHg 87%
    10:00 +26°C° 0.1 mm 0 m/S 709 mmHg 83%
    11:00 +27°C° 0.5 mm 0 m/S 708 mmHg 81%
    12:00 +29°C° 0.5 mm 1 m/S 707 mmHg 79%
    13:00 +30°C° 0.5 mm 1 m/S 706 mmHg 77%
    14:00 +29°C° 1.3 mm 1 m/S 706 mmHg 80%
    15:00 +29°C° 1.3 mm 1 m/S 705 mmHg 83%
    16:00 +28°C° 1.3 mm 1 m/S 705 mmHg 87%
    17:00 +27°C° 1.8 mm 1 m/S 705 mmHg 90%
    18:00 +26°C° 1.8 mm 1 m/S 705 mmHg 93%
    19:00 +23°C° 1.8 mm 0 m/S 706 mmHg 97%
    20:00 +23°C° 1.8 mm 0 m/S 706 mmHg 97%
    21:00 +22°C° 1.8 mm 0 m/S 707 mmHg 97%
    22:00 +22°C° 1.8 mm 0 m/S 708 mmHg 97%
    23:00 +22°C° 1.5 mm 0 m/S 707 mmHg 97%

    Morgen, 13 Dezember, Freitag

    Zeit Temperatur Niederschläge Wind Luftdruck Luftfeuchtigkeit
    00:00 +22°C° 1.5 mm 0 m/S 707 mmHg 98%
    01:00 +22°C° 1.5 mm 0 m/S 706 mmHg 98%
    02:00 +22°C° 3.4 mm 0 m/S 706 mmHg 98%
    03:00 +22°C° 3.4 mm 0 m/S 706 mmHg 98%
    04:00 +22°C° 3.4 mm 0 m/S 706 mmHg 99%
    05:00 +22°C° 1.2 mm 0 m/S 706 mmHg 98%
    06:00 +22°C° 1.2 mm 0 m/S 707 mmHg 98%
    07:00 +22°C° 1.2 mm 0 m/S 707 mmHg 98%
    08:00 +22°C° 0.2 mm 0 m/S 707 mmHg 96%
    09:00 +23°C° 0.2 mm 0 m/S 708 mmHg 94%
    10:00 +23°C° 0.2 mm 0 m/S 708 mmHg 93%
    11:00 +24°C° 0.3 mm 0 m/S 708 mmHg 89%
    12:00 +25°C° 0.3 mm 0 m/S 707 mmHg 86%
    13:00 +28°C° 0.3 mm 1 m/S 707 mmHg 83%
    14:00 +28°C° 1 mm 1 m/S 706 mmHg 85%
    15:00 +25°C° 1 mm 0 m/S 706 mmHg 87%
    16:00 +25°C° 1 mm 0 m/S 705 mmHg 89%
    17:00 +24°C° 0.9 mm 0 m/S 706 mmHg 91%
    18:00 +24°C° 0.9 mm 0 m/S 706 mmHg 93%
    19:00 +23°C° 0.9 mm 0 m/S 706 mmHg 95%
    20:00 +23°C° 1 mm 0 m/S 707 mmHg 95%
    21:00 +22°C° 1 mm 0 m/S 707 mmHg 96%
    22:00 +22°C° 1 mm 0 m/S 708 mmHg 96%
    23:00 +22°C° 2.5 mm 0 m/S 707 mmHg 97%

    übermorgen, 14 Dezember, Samstag

    Zeit Temperatur Niederschläge Wind Luftdruck Luftfeuchtigkeit
    00:00 +22°C° 2.5 mm 0 m/S 707 mmHg 97%
    01:00 +22°C° 2.5 mm 0 m/S 707 mmHg 98%
    02:00 +22°C° 4.5 mm 0 m/S 706 mmHg 98%
    03:00 +22°C° 4.5 mm 0 m/S 706 mmHg 98%
    04:00 +21°C° 4.5 mm 0 m/S 706 mmHg 98%
    05:00 +21°C° 1.9 mm 0 m/S 707 mmHg 98%
    06:00 +21°C° 1.9 mm 0 m/S 707 mmHg 98%
    07:00 +21°C° 1.9 mm 0 m/S 708 mmHg 97%
    08:00 +22°C° 0.2 mm 0 m/S 708 mmHg 96%
    09:00 +23°C° 0.2 mm 0 m/S 708 mmHg 95%
    10:00 +23°C° 0.2 mm 0 m/S 708 mmHg 93%
    11:00 +24°C° 0.3 mm 0 m/S 708 mmHg 88%
    12:00 +26°C° 0.3 mm 0 m/S 708 mmHg 82%
    13:00 +27°C° 0.3 mm 0 m/S 707 mmHg 77%
    14:00 +29°C° 0.8 mm 1 m/S 707 mmHg 79%
    15:00 +28°C° 0.8 mm 1 m/S 706 mmHg 82%
    16:00 +28°C° 0.8 mm 1 m/S 706 mmHg 85%
    17:00 +27°C° 1.7 mm 1 m/S 706 mmHg 89%
    18:00 +24°C° 1.7 mm 0 m/S 706 mmHg 92%
    19:00 +23°C° 1.7 mm 0 m/S 707 mmHg 95%
    20:00 +22°C° 1.8 mm 0 m/S 707 mmHg 96%
    21:00 +22°C° 1.8 mm 0 m/S 708 mmHg 96%
    22:00 +22°C° 1.8 mm 0 m/S 708 mmHg 97%
    23:00 +22°C° 0.6 mm 0 m/S 708 mmHg 96%

    15 Dezember, Sonntag

    Zeit Temperatur Niederschläge Wind Luftdruck Luftfeuchtigkeit
    00:00 +22°C° 0.6 mm 0 m/S 708 mmHg 96%
    01:00 +22°C° 0.6 mm 0 m/S 707 mmHg 96%
    02:00 +22°C° 0.5 mm 0 m/S 707 mmHg 96%
    03:00 +21°C° 0.5 mm 0 m/S 707 mmHg 96%
    04:00 +21°C° 0.5 mm 0 m/S 707 mmHg 96%
    05:00 +22°C° 0.3 mm 0 m/S 707 mmHg 96%
    06:00 +22°C° 0.3 mm 0 m/S 708 mmHg 96%
    07:00 +22°C° 0.3 mm 0 m/S 708 mmHg 95%
    08:00 +23°C° 0.1 mm 0 m/S 709 mmHg 92%
    09:00 +25°C° 0.1 mm 0 m/S 709 mmHg 88%
    10:00 +26°C° 0.1 mm 0 m/S 710 mmHg 85%
    11:00 +26°C° 0.6 mm 0 m/S 709 mmHg 83%
    12:00 +27°C° 0.6 mm 0 m/S 708 mmHg 81%
    13:00 +28°C° 0.6 mm 0 m/S 708 mmHg 78%
    14:00 +29°C° 1.1 mm 1 m/S 707 mmHg 81%
    15:00 +29°C° 1.1 mm 1 m/S 707 mmHg 84%
    16:00 +29°C° 1.1 mm 1 m/S 706 mmHg 86%
    17:00 +27°C° 1.5 mm 1 m/S 706 mmHg 89%
    18:00 +26°C° 1.5 mm 1 m/S 707 mmHg 92%
    19:00 +25°C° 1.5 mm 1 m/S 707 mmHg 95%
    20:00 +23°C° 0.8 mm 0 m/S 707 mmHg 95%
    21:00 +23°C° 0.8 mm 0 m/S 708 mmHg 96%
    22:00 +23°C° 0.8 mm 0 m/S 708 mmHg 96%
    23:00 +23°C° 0.8 mm 0 m/S 708 mmHg 96%

    16 Dezember, Montag

    Zeit Temperatur Niederschläge Wind Luftdruck Luftfeuchtigkeit
    00:00 +22°C° 0.8 mm 0 m/S 708 mmHg 97%
    01:00 +22°C° 0.8 mm 0 m/S 707 mmHg 97%
    02:00 +22°C° 1.6 mm 0 m/S 707 mmHg 97%
    03:00 +22°C° 1.6 mm 0 m/S 707 mmHg 97%
    04:00 +22°C° 1.6 mm 0 m/S 707 mmHg 97%
    05:00 +22°C° 0.3 mm 0 m/S 707 mmHg 97%
    06:00 +22°C° 0.3 mm 0 m/S 708 mmHg 97%
    07:00 +22°C° 0.3 mm 0 m/S 708 mmHg 96%
    08:00 +24°C° 0.3 mm 0 m/S 708 mmHg 93%
    09:00 +25°C° 0.3 mm 0 m/S 708 mmHg 90%
    10:00 +26°C° 0.3 mm 0 m/S 709 mmHg 87%
    11:00 +29°C° 1.1 mm 1 m/S 708 mmHg 85%
    12:00 +29°C° 1.1 mm 1 m/S 707 mmHg 84%
    13:00 +30°C° 1.1 mm 1 m/S 707 mmHg 82%
    14:00 +29°C° 1.8 mm 1 m/S 706 mmHg 84%
    15:00 +29°C° 1.8 mm 1 m/S 705 mmHg 86%
    16:00 +28°C° 1.8 mm 1 m/S 705 mmHg 89%
    17:00 +27°C° 1.4 mm 1 m/S 705 mmHg 91%
    18:00 +26°C° 1.4 mm 1 m/S 706 mmHg 93%
    19:00 +25°C° 1.4 mm 1 m/S 706 mmHg 95%
    20:00 +23°C° 1.4 mm 0 m/S 706 mmHg 96%
    21:00 +23°C° 1.4 mm 0 m/S 707 mmHg 96%
    22:00 +23°C° 1.4 mm 0 m/S 707 mmHg 96%
    23:00 +23°C° 3.9 mm 0 m/S 707 mmHg 97%

    17 Dezember, Dienstag

    Zeit Temperatur Niederschläge Wind Luftdruck Luftfeuchtigkeit
    00:00 +22°C° 3.9 mm 0 m/S 707 mmHg 97%
    01:00 +22°C° 3.9 mm 0 m/S 707 mmHg 98%
    02:00 +22°C° 1 mm 0 m/S 706 mmHg 98%
    03:00 +22°C° 1 mm 0 m/S 706 mmHg 98%
    04:00 +22°C° 1 mm 0 m/S 705 mmHg 98%
    05:00 +22°C° 0.2 mm 0 m/S 706 mmHg 97%
    06:00 +22°C° 0.2 mm 0 m/S 706 mmHg 96%
    07:00 +22°C° 0.2 mm 0 m/S 707 mmHg 96%
    08:00 +24°C° 0.1 mm 0 m/S 707 mmHg 91%
    09:00 +27°C° 0.1 mm 1 m/S 707 mmHg 86%
    10:00 +29°C° 0.1 mm 1 m/S 707 mmHg 80%
    11:00 +29°C° 0.6 mm 1 m/S 707 mmHg 79%
    12:00 +30°C° 0.6 mm 1 m/S 706 mmHg 78%
    13:00 +28°C° 0.6 mm 0 m/S 706 mmHg 77%
    14:00 +29°C° 1.6 mm 1 m/S 705 mmHg 81%
    15:00 +29°C° 1.6 mm 1 m/S 704 mmHg 85%
    16:00 +28°C° 1.6 mm 1 m/S 704 mmHg 89%
    17:00 +27°C° 1.3 mm 1 m/S 704 mmHg 91%
    18:00 +24°C° 1.3 mm 0 m/S 705 mmHg 93%
    19:00 +23°C° 1.3 mm 0 m/S 705 mmHg 95%
    20:00 +23°C° 1.5 mm 0 m/S 706 mmHg 96%
    21:00 +23°C° 1.5 mm 0 m/S 706 mmHg 96%
    22:00 +23°C° 1.5 mm 0 m/S 707 mmHg 96%
    23:00 +22°C° 1.6 mm 0 m/S 707 mmHg 96%
    Mehr zeigen